• In Hungary
  • List of Countries
  • For 7 days
  • Water Temperature
  • Satellite Maps
  • Weather Map
  • News
  • Weather Widgets
  • user-avatar
    Login

    Hourly Weather Puerto Real

    Today, 25 September, Tuesday

    Time Temperature Precipitation Wind Pressure Humidity
    00:00 +28°C° 0 mm 5 mps 763 mmHg 38%
    01:00 +28°C° 0 mm 5 mps 763 mmHg 38%
    02:00 +28°C° 0 mm 4 mps 762 mmHg 39%
    03:00 +27°C° 0 mm 4 mps 762 mmHg 39%
    04:00 +27°C° 0 mm 4 mps 762 mmHg 40%
    05:00 +27°C° 0 mm 4 mps 763 mmHg 41%
    06:00 +26°C° 0 mm 4 mps 763 mmHg 42%
    07:00 +28°C° 0 mm 4 mps 763 mmHg 39%
    08:00 +30°C° 0 mm 5 mps 763 mmHg 36%
    09:00 +33°C° 0 mm 5 mps 763 mmHg 33%
    10:00 +34°C° 0 mm 6 mps 763 mmHg 31%
    11:00 +36°C° 0 mm 6 mps 763 mmHg 30%
    12:00 +38°C° 0 mm 7 mps 763 mmHg 28%
    13:00 +38°C° 0 mm 7 mps 763 mmHg 29%
    14:00 +38°C° 0 mm 7 mps 763 mmHg 30%
    15:00 +38°C° 0 mm 7 mps 762 mmHg 31%
    16:00 +37°C° 0 mm 8 mps 762 mmHg 35%
    17:00 +34°C° 0 mm 8 mps 762 mmHg 40%
    18:00 +33°C° 0 mm 8 mps 762 mmHg 44%
    19:00 +32°C° 0 mm 8 mps 763 mmHg 48%
    20:00 +31°C° 0 mm 8 mps 763 mmHg 51%
    21:00 +29°C° 0 mm 9 mps 764 mmHg 55%
    22:00 +28°C° 0 mm 9 mps 764 mmHg 58%
    23:00 +28°C° 0 mm 9 mps 764 mmHg 61%

    Tomorrow, 26 September, Wednesday

    Time Temperature Precipitation Wind Pressure Humidity
    00:00 +28°C° 0 mm 9 mps 764 mmHg 64%
    01:00 +27°C° 0 mm 9 mps 764 mmHg 65%
    02:00 +27°C° 0 mm 9 mps 764 mmHg 66%
    03:00 +27°C° 0 mm 9 mps 763 mmHg 67%
    04:00 +26°C° 0 mm 8 mps 764 mmHg 68%
    05:00 +26°C° 0 mm 8 mps 764 mmHg 68%
    06:00 +26°C° 0 mm 8 mps 764 mmHg 69%
    07:00 +27°C° 0 mm 8 mps 764 mmHg 64%
    08:00 +28°C° 0 mm 8 mps 765 mmHg 60%
    09:00 +31°C° 0 mm 9 mps 765 mmHg 55%
    10:00 +32°C° 0 mm 9 mps 765 mmHg 51%
    11:00 +33°C° 0 mm 9 mps 765 mmHg 46%
    12:00 +34°C° 0 mm 9 mps 765 mmHg 42%
    13:00 +35°C° 0 mm 9 mps 764 mmHg 41%
    14:00 +35°C° 0 mm 9 mps 764 mmHg 40%
    15:00 +35°C° 0 mm 9 mps 764 mmHg 38%
    16:00 +34°C° 0 mm 9 mps 764 mmHg 41%
    17:00 +33°C° 0 mm 9 mps 764 mmHg 44%
    18:00 +32°C° 0 mm 9 mps 764 mmHg 47%
    19:00 +31°C° 0 mm 9 mps 764 mmHg 50%
    20:00 +29°C° 0 mm 9 mps 765 mmHg 53%
    21:00 +28°C° 0 mm 9 mps 765 mmHg 57%
    22:00 +28°C° 0 mm 9 mps 765 mmHg 59%
    23:00 +27°C° 0 mm 9 mps 765 mmHg 61%

    Day after tomorrow, 27 September, Thursday

    Time Temperature Precipitation Wind Pressure Humidity
    00:00 +27°C° 0 mm 9 mps 765 mmHg 63%
    01:00 +27°C° 0 mm 8 mps 765 mmHg 64%
    02:00 +27°C° 0 mm 8 mps 765 mmHg 65%
    03:00 +26°C° 0 mm 7 mps 765 mmHg 67%
    04:00 +26°C° 0 mm 7 mps 765 mmHg 68%
    05:00 +26°C° 0 mm 7 mps 765 mmHg 69%
    06:00 +24°C° 0 mm 7 mps 765 mmHg 71%
    07:00 +27°C° 0 mm 7 mps 765 mmHg 65%
    08:00 +28°C° 0 mm 7 mps 766 mmHg 60%
    09:00 +29°C° 0 mm 8 mps 766 mmHg 55%
    10:00 +32°C° 0 mm 8 mps 766 mmHg 50%
    11:00 +33°C° 0 mm 8 mps 766 mmHg 45%
    12:00 +34°C° 0 mm 8 mps 766 mmHg 41%
    13:00 +34°C° 0 mm 8 mps 765 mmHg 39%
    14:00 +34°C° 0 mm 8 mps 765 mmHg 38%
    15:00 +35°C° 0 mm 8 mps 764 mmHg 37%
    16:00 +33°C° 0 mm 8 mps 764 mmHg 40%
    17:00 +32°C° 0 mm 8 mps 764 mmHg 43%
    18:00 +31°C° 0 mm 8 mps 764 mmHg 46%
    19:00 +29°C° 0 mm 8 mps 764 mmHg 51%
    20:00 +28°C° 0 mm 8 mps 764 mmHg 55%
    21:00 +28°C° 0 mm 8 mps 765 mmHg 60%
    22:00 +27°C° 0 mm 8 mps 765 mmHg 61%
    23:00 +27°C° 0 mm 8 mps 764 mmHg 63%

    28 September, Friday

    Time Temperature Precipitation Wind Pressure Humidity
    00:00 +26°C° 0 mm 8 mps 764 mmHg 65%
    01:00 +26°C° 0 mm 7 mps 764 mmHg 66%
    02:00 +26°C° 0 mm 7 mps 764 mmHg 68%
    03:00 +24°C° 0 mm 6 mps 763 mmHg 69%
    04:00 +24°C° 0 mm 6 mps 763 mmHg 69%
    05:00 +25°C° 0 mm 5 mps 763 mmHg 70%
    06:00 +23°C° 0 mm 5 mps 764 mmHg 70%
    07:00 +26°C° 0 mm 5 mps 764 mmHg 64%
    08:00 +27°C° 0 mm 5 mps 764 mmHg 58%
    09:00 +29°C° 0 mm 5 mps 764 mmHg 51%
    10:00 +30°C° 0 mm 4 mps 764 mmHg 48%
    11:00 +32°C° 0 mm 4 mps 764 mmHg 44%
    12:00 +34°C° 0 mm 4 mps 763 mmHg 41%
    13:00 +34°C° 0 mm 5 mps 763 mmHg 40%
    14:00 +34°C° 0 mm 5 mps 762 mmHg 40%
    15:00 +34°C° 0 mm 5 mps 761 mmHg 39%
    16:00 +33°C° 0 mm 6 mps 761 mmHg 43%
    17:00 +32°C° 0 mm 6 mps 761 mmHg 47%
    18:00 +30°C° 0 mm 6 mps 761 mmHg 51%
    19:00 +29°C° 0 mm 6 mps 761 mmHg 55%
    20:00 +28°C° 0 mm 6 mps 762 mmHg 59%
    21:00 +27°C° 0 mm 6 mps 762 mmHg 63%
    22:00 +26°C° 0 mm 6 mps 762 mmHg 64%
    23:00 +26°C° 0 mm 5 mps 762 mmHg 65%

    29 September, Saturday

    Time Temperature Precipitation Wind Pressure Humidity
    00:00 +26°C° 0 mm 5 mps 761 mmHg 66%
    01:00 +25°C° 0 mm 4 mps 761 mmHg 68%
    02:00 +25°C° 0 mm 4 mps 761 mmHg 69%
    03:00 +25°C° 0 mm 4 mps 760 mmHg 71%
    04:00 +23°C° 0 mm 4 mps 760 mmHg 72%
    05:00 +24°C° 0 mm 3 mps 760 mmHg 73%
    06:00 +24°C° 0 mm 3 mps 760 mmHg 74%
    07:00 +25°C° 0 mm 3 mps 761 mmHg 68%
    08:00 +27°C° 0 mm 4 mps 761 mmHg 62%
    09:00 +28°C° 0 mm 4 mps 761 mmHg 56%
    10:00 +30°C° 0 mm 4 mps 761 mmHg 51%
    11:00 +32°C° 0 mm 4 mps 761 mmHg 45%
    12:00 +34°C° 0 mm 4 mps 760 mmHg 40%
    13:00 +34°C° 0 mm 4 mps 760 mmHg 40%
    14:00 +34°C° 0 mm 4 mps 760 mmHg 39%
    15:00 +34°C° 0 mm 5 mps 759 mmHg 39%
    16:00 +33°C° 0 mm 5 mps 759 mmHg 44%
    17:00 +32°C° 0 mm 5 mps 759 mmHg 48%
    18:00 +29°C° 0 mm 5 mps 759 mmHg 53%
    19:00 +28°C° 0 mm 5 mps 760 mmHg 57%
    20:00 +27°C° 0 mm 4 mps 760 mmHg 61%
    21:00 +26°C° 0 mm 4 mps 761 mmHg 65%
    22:00 +26°C° 0 mm 4 mps 761 mmHg 66%
    23:00 +26°C° 0 mm 4 mps 761 mmHg 67%

    30 September, Sunday

    Time Temperature Precipitation Wind Pressure Humidity
    00:00 +25°C° 0 mm 4 mps 761 mmHg 67%
    01:00 +25°C° 0 mm 4 mps 761 mmHg 68%
    02:00 +25°C° 0 mm 4 mps 761 mmHg 69%
    03:00 +25°C° 0 mm 4 mps 761 mmHg 70%
    04:00 +23°C° 0 mm 4 mps 761 mmHg 70%
    05:00 +23°C° 0 mm 4 mps 761 mmHg 70%
    06:00 +23°C° 0 mm 4 mps 761 mmHg 70%
    07:00 +26°C° 0 mm 4 mps 762 mmHg 64%
    08:00 +27°C° 0 mm 4 mps 762 mmHg 58%
    09:00 +29°C° 0 mm 4 mps 762 mmHg 52%
    10:00 +30°C° 0 mm 4 mps 762 mmHg 47%
    11:00 +32°C° 0 mm 4 mps 762 mmHg 43%
    12:00 +33°C° 0 mm 3 mps 762 mmHg 39%
    13:00 +34°C° 0 mm 4 mps 762 mmHg 38%
    14:00 +34°C° 0 mm 4 mps 762 mmHg 37%
    15:00 +34°C° 0 mm 4 mps 761 mmHg 36%
    16:00 +33°C° 0 mm 5 mps 762 mmHg 40%
    17:00 +32°C° 0 mm 5 mps 762 mmHg 44%
    18:00 +29°C° 0 mm 5 mps 762 mmHg 48%
    19:00 +28°C° 0.1 mm 5 mps 762 mmHg 52%
    20:00 +27°C° 0.1 mm 4 mps 763 mmHg 56%
    21:00 +26°C° 0.1 mm 4 mps 763 mmHg 61%
    22:00 +26°C° 0 mm 4 mps 763 mmHg 61%
    23:00 +26°C° 0 mm 4 mps 763 mmHg 61%
    Show more